When you browse on this site, cookies collect data to enhance your experience and personalize the content and advertising you see.
Visit our Privacy Policy to learn more. By continuing to use the site, you agree to this use of cookies and data.
  • In Czech Republic
  • List of Countries
  • For 7 days
  • Water Temperature
  • Satellite Maps
  • Weather Map
  • Weather Widgets
  • user-avatar
    Login

    Hourly Weather Idzhewan

    Today, 22 March, Friday

    Time Temperature Precipitation Wind Pressure Humidity
    00:00 +6°C° 0 mm 1 mps 695 mmHg 72%
    01:00 +5°C° 0 mm 0 mps 695 mmHg 73%
    02:00 +5°C° 0 mm 0 mps 695 mmHg 74%
    03:00 +5°C° 0 mm 1 mps 694 mmHg 79%
    04:00 +5°C° 0 mm 1 mps 695 mmHg 80%
    05:00 +4°C° 0 mm 1 mps 695 mmHg 82%
    06:00 +4°C° 0 mm 1 mps 695 mmHg 83%
    07:00 +6°C° 0 mm 1 mps 695 mmHg 77%
    08:00 +7°C° 0 mm 1 mps 695 mmHg 71%
    09:00 +8°C° 0 mm 1 mps 695 mmHg 65%
    10:00 +9°C° 0.1 mm 1 mps 694 mmHg 64%
    11:00 +8°C° 0.1 mm 2 mps 694 mmHg 63%
    12:00 +9°C° 0.1 mm 2 mps 694 mmHg 62%
    13:00 +9°C° 0.3 mm 2 mps 693 mmHg 63%
    14:00 +9°C° 0.3 mm 2 mps 693 mmHg 64%
    15:00 +9°C° 0.3 mm 2 mps 693 mmHg 64%
    16:00 +8°C° 0.1 mm 2 mps 693 mmHg 66%
    17:00 +8°C° 0.1 mm 2 mps 693 mmHg 68%
    18:00 +8°C° 0.1 mm 1 mps 693 mmHg 70%
    19:00 +7°C° 0 mm 1 mps 693 mmHg 73%
    20:00 +6°C° 0 mm 1 mps 694 mmHg 75%
    21:00 +5°C° 0 mm 0 mps 694 mmHg 78%
    22:00 +4°C° 0 mm 0 mps 694 mmHg 79%
    23:00 +4°C° 0 mm 0 mps 694 mmHg 80%

    Tomorrow, 23 March, Saturday

    Time Temperature Precipitation Wind Pressure Humidity
    00:00 +3°C° 0 mm 0 mps 695 mmHg 81%
    01:00 +3°C° 0 mm 0 mps 694 mmHg 82%
    02:00 +3°C° 0 mm 0 mps 694 mmHg 83%
    03:00 +2°C° 0 mm 0 mps 694 mmHg 84%
    04:00 +2°C° 0 mm 0 mps 694 mmHg 83%
    05:00 +2°C° 0 mm 0 mps 694 mmHg 83%
    06:00 +2°C° 0 mm 0 mps 694 mmHg 82%
    07:00 +3°C° 0 mm 0 mps 693 mmHg 76%
    08:00 +5°C° 0 mm 1 mps 693 mmHg 70%
    09:00 +7°C° 0 mm 1 mps 693 mmHg 63%
    10:00 +8°C° 0 mm 1 mps 692 mmHg 59%
    11:00 +9°C° 0 mm 1 mps 692 mmHg 55%
    12:00 +9°C° 0 mm 2 mps 691 mmHg 51%
    13:00 +9°C° 0 mm 2 mps 691 mmHg 50%
    14:00 +10°C° 0 mm 2 mps 690 mmHg 48%
    15:00 +10°C° 0 mm 2 mps 690 mmHg 46%
    16:00 +10°C° 0 mm 1 mps 690 mmHg 51%
    17:00 +9°C° 0 mm 1 mps 689 mmHg 55%
    18:00 +8°C° 0 mm 1 mps 689 mmHg 60%
    19:00 +7°C° 0 mm 1 mps 689 mmHg 63%
    20:00 +6°C° 0 mm 0 mps 690 mmHg 67%
    21:00 +5°C° 0 mm 0 mps 690 mmHg 71%
    22:00 +4°C° 0 mm 0 mps 690 mmHg 71%
    23:00 +4°C° 0 mm 0 mps 690 mmHg 72%

    Day after tomorrow, 24 March, Sunday

    Time Temperature Precipitation Wind Pressure Humidity
    00:00 +4°C° 0 mm 0 mps 689 mmHg 73%
    01:00 +4°C° 0 mm 0 mps 689 mmHg 72%
    02:00 +4°C° 0 mm 0 mps 689 mmHg 72%
    03:00 +4°C° 0 mm 0 mps 689 mmHg 72%
    04:00 +4°C° 0.1 mm 0 mps 688 mmHg 74%
    05:00 +4°C° 0.1 mm 0 mps 688 mmHg 77%
    06:00 +3°C° 0.1 mm 0 mps 688 mmHg 79%
    07:00 +5°C° 0 mm 1 mps 688 mmHg 75%
    08:00 +6°C° 0 mm 1 mps 688 mmHg 71%
    09:00 +6°C° 0 mm 2 mps 688 mmHg 67%
    10:00 +7°C° 0 mm 2 mps 687 mmHg 65%
    11:00 +8°C° 0 mm 2 mps 687 mmHg 64%
    12:00 +8°C° 0 mm 3 mps 687 mmHg 63%
    13:00 +8°C° 0.1 mm 3 mps 686 mmHg 64%
    14:00 +8°C° 0.1 mm 3 mps 686 mmHg 66%
    15:00 +8°C° 0.1 mm 3 mps 686 mmHg 67%
    16:00 +7°C° 0.3 mm 3 mps 686 mmHg 71%
    17:00 +6°C° 0.3 mm 2 mps 686 mmHg 76%
    18:00 +5°C° 0.3 mm 2 mps 687 mmHg 80%
    19:00 +5°C° 0.5 mm 2 mps 687 mmHg 83%
    20:00 +4°C° 0.5 mm 2 mps 688 mmHg 86%
    21:00 +4°C° 0.5 mm 2 mps 689 mmHg 88%
    22:00 +5°C° 0.2 mm 1 mps 689 mmHg 88%
    23:00 +4°C° 0.2 mm 1 mps 689 mmHg 88%

    25 March, Monday

    Time Temperature Precipitation Wind Pressure Humidity
    00:00 +4°C° 0.2 mm 1 mps 689 mmHg 87%
    01:00 +4°C° 0.1 mm 1 mps 689 mmHg 88%
    02:00 +4°C° 0.1 mm 1 mps 689 mmHg 88%
    03:00 +4°C° 0.1 mm 1 mps 689 mmHg 88%
    04:00 +4°C° 0 mm 1 mps 689 mmHg 88%
    05:00 +3°C° 0 mm 0 mps 688 mmHg 88%
    06:00 +3°C° 0 mm 0 mps 688 mmHg 88%
    07:00 +4°C° 0 mm 1 mps 688 mmHg 85%
    08:00 +5°C° 0 mm 1 mps 688 mmHg 81%
    09:00 +5°C° 0 mm 2 mps 688 mmHg 78%
    10:00 +6°C° 0 mm 2 mps 687 mmHg 76%
    11:00 +7°C° 0 mm 2 mps 687 mmHg 74%
    12:00 +8°C° 0 mm 2 mps 686 mmHg 73%
    13:00 +8°C° 0 mm 2 mps 686 mmHg 73%
    14:00 +8°C° 0 mm 2 mps 686 mmHg 73%
    15:00 +8°C° 0 mm 2 mps 685 mmHg 73%
    16:00 +7°C° 0.1 mm 2 mps 685 mmHg 76%
    17:00 +7°C° 0.1 mm 2 mps 685 mmHg 80%
    18:00 +6°C° 0.1 mm 2 mps 685 mmHg 84%
    19:00 +6°C° 0.3 mm 2 mps 686 mmHg 86%
    20:00 +6°C° 0.3 mm 2 mps 686 mmHg 89%
    21:00 +6°C° 0.3 mm 1 mps 687 mmHg 91%
    22:00 +6°C° 0.8 mm 1 mps 687 mmHg 93%
    23:00 +6°C° 0.8 mm 1 mps 687 mmHg 94%

    26 March, Tuesday

    Time Temperature Precipitation Wind Pressure Humidity
    00:00 +6°C° 0.8 mm 1 mps 687 mmHg 95%
    01:00 +6°C° 0.6 mm 1 mps 687 mmHg 96%
    02:00 +6°C° 0.6 mm 1 mps 687 mmHg 96%
    03:00 +5°C° 0.6 mm 1 mps 687 mmHg 96%
    04:00 +5°C° 0.4 mm 1 mps 687 mmHg 96%
    05:00 +5°C° 0.4 mm 1 mps 687 mmHg 95%
    06:00 +5°C° 0.4 mm 1 mps 687 mmHg 95%
    07:00 +6°C° 0.5 mm 1 mps 687 mmHg 94%
    08:00 +6°C° 0.5 mm 1 mps 687 mmHg 92%
    09:00 +6°C° 0.5 mm 1 mps 688 mmHg 91%
    10:00 +7°C° 0.2 mm 1 mps 687 mmHg 89%
    11:00 +6°C° 0.2 mm 2 mps 687 mmHg 88%
    12:00 +7°C° 0.2 mm 2 mps 687 mmHg 86%
    13:00 +7°C° 0.1 mm 2 mps 687 mmHg 85%
    14:00 +8°C° 0.1 mm 2 mps 686 mmHg 83%
    15:00 +8°C° 0.1 mm 2 mps 686 mmHg 82%
    16:00 +8°C° 0.1 mm 2 mps 687 mmHg 83%
    17:00 +8°C° 0.1 mm 1 mps 687 mmHg 84%
    18:00 +8°C° 0.1 mm 1 mps 687 mmHg 85%
    19:00 +8°C° 0 mm 1 mps 688 mmHg 85%
    20:00 +6°C° 0 mm 0 mps 688 mmHg 86%
    21:00 +6°C° 0 mm 0 mps 689 mmHg 87%
    22:00 +6°C° 0 mm 0 mps 689 mmHg 87%
    23:00 +5°C° 0 mm 0 mps 689 mmHg 87%

    27 March, Wednesday

    Time Temperature Precipitation Wind Pressure Humidity
    00:00 +5°C° 0 mm 0 mps 689 mmHg 88%
    01:00 +5°C° 0.1 mm 0 mps 690 mmHg 88%
    02:00 +5°C° 0.1 mm 0 mps 690 mmHg 89%
    03:00 +5°C° 0.1 mm 0 mps 691 mmHg 89%
    04:00 +5°C° 0.1 mm 0 mps 691 mmHg 90%
    05:00 +5°C° 0.1 mm 0 mps 691 mmHg 90%
    06:00 +4°C° 0.1 mm 0 mps 692 mmHg 90%
    07:00 +6°C° 0 mm 1 mps 692 mmHg 87%
    08:00 +8°C° 0 mm 1 mps 693 mmHg 84%
    09:00 +9°C° 0 mm 1 mps 693 mmHg 81%
    10:00 +9°C° 0 mm 1 mps 693 mmHg 80%
    11:00 +10°C° 0 mm 1 mps 693 mmHg 78%
    12:00 +9°C° 0 mm 2 mps 693 mmHg 77%
    13:00 +10°C° 0.1 mm 2 mps 692 mmHg 76%
    14:00 +10°C° 0.1 mm 2 mps 692 mmHg 74%
    15:00 +12°C° 0.1 mm 2 mps 692 mmHg 73%
    16:00 +10°C° 0.1 mm 2 mps 693 mmHg 77%
    17:00 +9°C° 0.1 mm 2 mps 693 mmHg 80%
    18:00 +9°C° 0.1 mm 2 mps 694 mmHg 83%
    19:00 +9°C° 0.2 mm 1 mps 694 mmHg 85%
    20:00 +9°C° 0.2 mm 1 mps 695 mmHg 87%
    21:00 +8°C° 0.2 mm 1 mps 695 mmHg 89%
    22:00 +8°C° 0.1 mm 1 mps 695 mmHg 91%
    23:00 +7°C° 0.1 mm 1 mps 695 mmHg 92%
    Show more